Location: Wiesbaden
(50.0830°N, 8.2500°E)
Time: 20:32:57
(UTC+02:00)

ISS - Pass Details

Date: 13 July 2019
Orbit: 409 x 418 km, 51.6° (Epoch: 20 July)

Event Time Altitude Azimuth Distance (km) Brightness Sun altitude
Exits shadow 02:24:27 26° 258° (WSW) 864 -2.4 -17.1°
Maximum altitude 02:26:13 84° 345° (NNW) 419 -3.8 -17.1°
Drops below altitude 10° 02:29:33 10° 75° (ENE) 1,481 -0.6 -16.9°
Sets 02:31:38 0° 76° (ENE) 2,343 0.4 -16.8°
